Вернуться в каталог

DMSP 5D-2 F11 DEB

АктивенPO
NORAD 28345·DEBRIS·🇺🇸 United States

Запущен Nov 28, 1991 с Vandenberg Space Force Base

Loading…

Ближайшие Пролёты (ближайшие 24 часа)

TLE

СвежийSource: Space-Track

Эпоха: Sep 14, 2026, 18:34 UTC

1 28345U 91082BJ  26257.77413864  .00024473  00000-0  34090-2 0  9992
2 28345  98.6110  11.3488 0038937 325.2147  34.6517 14.77218177142758

Отслеживайте DMSP 5D-2 F11 DEB в реальном времени с AllMySat

Download on the App Store